Location: Newark
(22.3060°N, 114.2134°E)
Time: 03:01:26
(UTC+00:00)

Explorer 11/Cluster Stage 4 - Pass Details

Date: 29 July 2021
Orbit: 467 x 1256 km, 28.8° (Epoch: 27 September)

Event Time Altitude Azimuth Distance (km) Brightness Sun altitude
Rises 21:59:41 0° 193° (SSW) 3,749 9.7 0.4°
Reaches altitude 10° 22:04:33 10° 163° (SSE) 2,978 9.5 1.4°
Maximum altitude 22:07:04 12° 143° (SE) 2,913 9.8 2.0°
Drops below altitude 10° 22:09:40 10° 123° (ESE) 3,120 10.3 2.5°
Sets 22:15:05 0° 95° (E) 4,174 11.7 3.7°
